Terminal Aerodrome Forecast
Issued by NWS Blacksburg, VA

Current Version | Previous Version | Graphics & Text | Print | Product List | Glossary On
Versions: 1 2 3 4 5 6 7 8 9 10 11 12 13 14 15 16 17 18 19 20 21 22 23 24 25 26 27 28 29 30 31 32 33 34 35 36 37 38 39 40 41 42 43 44 45 46 47 48 49 50
411
FTUS41 KRNK 022053 AAE
TAFBLF
TAF AMD
KBLF 022053Z 0221/0318 VRB04KT 1 1/2SM +TSRA BR SCT020CB OVC040
      TEMPO 0221/0222 1/4SM +TSRA FG OVC015CB
     FM022200 27010G20KT 4SM -TSRA OVC025CB
     FM030000 VRB05KT 4SM SHRA BR VCTS BKN015 OVC025CB
     FM030600 29004KT 4SM BR VCSH OVC013
     FM031600 28009KT P6SM SCT007 OVC015=

USA.gov is the U.S. government's official web portal to all federal, state and local government web resources and services.